TimePST,TemperatureF,Dew PointF,Humidity,Sea Level PressureIn,VisibilityMPH,Wind Direction,Wind SpeedMPH,Gust SpeedMPH,PrecipitationIn,Events,Conditions,WindDirDegrees,DateUTC
12:53 AM,42.1,39.9,92,29.94,7.0,Calm,Calm,-,N/A,,Overcast,0,2012-11-16 08:53:00
1:53 AM,43.0,41.0,93,29.94,6.0,Calm,Calm,-,N/A,,Overcast,0,2012-11-16 09:53:00
2:17 AM,42.8,41.0,93,29.93,6.0,NNE,3.5,-,N/A,,Overcast,30,2012-11-16 10:17:00
2:27 AM,42.8,41.0,93,29.93,6.0,ESE,3.5,-,N/A,,Overcast,110,2012-11-16 10:27:00
2:40 AM,42.8,39.2,87,29.93,8.0,ESE,3.5,-,N/A,,Overcast,110,2012-11-16 10:40:00
2:53 AM,43.0,39.9,89,29.93,9.0,East,3.5,-,N/A,,Overcast,100,2012-11-16 10:53:00
4:14 AM,42.8,41.0,93,29.91,7.0,ESE,3.5,-,N/A,,Overcast,110,2012-11-16 12:14:00
4:43 AM,42.8,39.2,87,29.91,8.0,Calm,Calm,-,N/A,,Overcast,0,2012-11-16 12:43:00
4:53 AM,43.0,39.9,89,29.91,7.0,Calm,Calm,-,N/A,,Overcast,0,2012-11-16 12:53:00
5:53 AM,43.0,39.9,89,29.90,9.0,East,4.6,-,N/A,,Overcast,80,2012-11-16 13:53:00
6:19 AM,42.8,39.2,87,29.89,10.0,ESE,8.1,-,N/A,,Overcast,110,2012-11-16 14:19:00
6:53 AM,43.0,39.9,89,29.89,10.0,East,8.1,-,N/A,,Overcast,100,2012-11-16 14:53:00
7:37 AM,42.8,39.2,87,29.89,10.0,ESE,8.1,-,N/A,,Overcast,110,2012-11-16 15:37:00
7:53 AM,43.0,39.9,89,29.89,10.0,East,6.9,-,N/A,,Overcast,100,2012-11-16 15:53:00
8:53 AM,44.1,39.9,85,29.90,9.0,East,4.6,-,N/A,,Overcast,100,2012-11-16 16:53:00
9:53 AM,44.1,39.0,82,29.90,10.0,East,6.9,-,N/A,,Overcast,100,2012-11-16 17:53:00
10:53 AM,44.1,39.0,82,29.90,10.0,East,5.8,-,N/A,,Overcast,80,2012-11-16 18:53:00
11:48 AM,44.6,39.2,81,29.88,10.0,East,5.8,-,N/A,,Overcast,80,2012-11-16 19:48:00
11:53 AM,45.0,39.0,80,29.88,10.0,East,6.9,-,N/A,,Overcast,90,2012-11-16 19:53:00
12:26 PM,44.6,39.2,81,29.87,10.0,East,8.1,-,N/A,,Overcast,100,2012-11-16 20:26:00
12:53 PM,46.0,39.0,76,29.86,10.0,East,6.9,-,N/A,,Overcast,90,2012-11-16 20:53:00
1:01 PM,46.4,39.2,76,29.86,10.0,East,6.9,-,N/A,,Overcast,90,2012-11-16 21:01:00
1:53 PM,46.9,39.0,74,29.84,10.0,ENE,4.6,-,N/A,,Overcast,60,2012-11-16 21:53:00
2:53 PM,46.9,39.0,74,29.81,10.0,ENE,5.8,-,N/A,,Mostly Cloudy,60,2012-11-16 22:53:00
3:07 PM,48.2,39.2,71,29.80,10.0,East,4.6,-,N/A,,Scattered Clouds,80,2012-11-16 23:07:00
3:53 PM,48.0,39.9,74,29.81,10.0,ESE,9.2,-,N/A,,Clear,110,2012-11-16 23:53:00
4:53 PM,48.9,39.0,69,29.78,10.0,ESE,12.7,-,N/A,,Partly Cloudy,110,2012-11-17 00:53:00
5:37 PM,48.2,42.8,82,29.76,10.0,ESE,15.0,21.9,N/A,,Overcast,120,2012-11-17 01:37:00
5:53 PM,48.0,42.1,80,29.76,10.0,ESE,12.7,23.0,N/A,,Overcast,120,2012-11-17 01:53:00
6:20 PM,48.2,41.0,76,29.75,10.0,ESE,8.1,-,N/A,,Overcast,120,2012-11-17 02:20:00
6:53 PM,48.0,42.1,80,29.74,10.0,ESE,10.4,-,N/A,,Overcast,120,2012-11-17 02:53:00
7:18 PM,48.2,42.8,82,29.73,10.0,ESE,6.9,-,N/A,,Mostly Cloudy,110,2012-11-17 03:18:00
7:53 PM,48.9,43.0,80,29.73,10.0,East,6.9,-,N/A,,Overcast,100,2012-11-17 03:53:00
8:31 PM,48.2,42.8,82,29.71,10.0,ESE,6.9,-,N/A,,Mostly Cloudy,120,2012-11-17 04:31:00
8:53 PM,48.9,44.1,83,29.70,10.0,ESE,9.2,-,N/A,,Overcast,120,2012-11-17 04:53:00
9:02 PM,50.0,44.6,82,29.70,10.0,ESE,12.7,-,N/A,,Overcast,110,2012-11-17 05:02:00
9:53 PM,48.9,43.0,80,29.69,10.0,SE,15.0,23.0,0.00,Rain,Light Rain,130,2012-11-17 05:53:00
10:14 PM,48.2,42.8,82,29.68,10.0,ESE,12.7,-,0.00,Rain,Light Rain,120,2012-11-17 06:14:00
10:53 PM,48.9,42.1,77,29.66,10.0,ESE,13.8,25.3,0.00,,Scattered Clouds,120,2012-11-17 06:53:00
11:53 PM,48.9,43.0,80,29.64,10.0,SE,16.1,26.5,N/A,,Mostly Cloudy,130,2012-11-17 07:53:00